Location: Llanfihangel-Ystrad
(52.1833°N, 4.1667°W)
Time: 01:34:02
(UTC+00:00)

Cosmos 292 Rocket - Pass Details

Date: 17 February 2020
Orbit: 674 x 694 km, 74.0° (Epoch: 03 April)

Event Time Altitude Azimuth Distance (km) Brightness Sun altitude
Exits shadow 04:43:30 44° 159° (SSE) 940 4.4 -25.9°
Drops below altitude 10° 04:46:42 10° 158° (SSE) 2,105 6.4 -25.4°
Sets 04:48:59 0° 158° (SSE) 3,015 7.2 -25.1°
